| time (UTC) | temp C | wind direction | speed KPH | gust KPH | rain 1hr cm | rain 24hr cm | rain mn cm | humidity % | barometer mb |
| 20260510103040 | 11 | 346 | 4.8 | 8.0 | 0.00 | 0.05 | 0.03 | 80 | 1012.2 |
| 20260510101533 | 11 | 346 | 3.2 | 6.4 | 0.00 | 0.05 | 0.03 | 78 | 1012.1 |
| 20260510100047 | 11 | 339 | 3.2 | 6.4 | 0.00 | 0.05 | 0.03 | 78 | 1012.1 |
| 20260510094544 | 12 | 349 | 3.2 | 6.4 | 0.00 | 0.05 | 0.03 | 75 | 1011.6 |
| 20260510093035 | 12 | 355 | 9.7 | 17.7 | 0.00 | 0.05 | 0.03 | 75 | 1011.5 |
| 20260510091534 | 12 | 356 | 4.8 | 14.5 | 0.03 | 0.05 | 0.03 | 76 | 1011.4 |
| 20260510090036 | 12 | 352 | 4.8 | 14.5 | 0.03 | 0.10 | 0.03 | 76 | 1011.2 |
| 20260510084549 | 12 | 354 | 8.0 | 14.5 | 0.03 | 0.10 | 0.03 | 76 | 1011.1 |
| 20260510083032 | 12 | 342 | 6.4 | 16.1 | 0.03 | 0.10 | 0.03 | 76 | 1010.6 |
| 20260510081523 | 12 | 360 | 8.0 | 14.5 | 0.00 | 0.08 | 0.00 | 77 | 1010.6 |
| 20260510080017 | 13 | 355 | 11.3 | 16.1 | 0.00 | 0.15 | 0.00 | 76 | 1010.3 |
| 20260510074517 | 13 | 337 | 4.8 | 12.9 | 0.00 | 0.15 | 0.00 | 79 | 1010.2 |
| 20260510073017 | 13 | 339 | 6.4 | 16.1 | 0.00 | 0.15 | 0.00 | 77 | 1009.9 |
| 20260510071517 | 13 | 346 | 8.0 | 14.5 | 0.00 | 0.15 | 0.00 | 79 | 1009.7 |
| 20260510070025 | 14 | 347 | 9.7 | 17.7 | 0.00 | 0.30 | 0.00 | 83 | 1009.7 |
| 20260510064526 | 14 | 342 | 4.8 | 11.3 | 0.00 | 0.30 | 0.00 | 88 | 1009.6 |
| 20260510063027 | 15 | 336 | 3.2 | 6.4 | 0.00 | 0.30 | 0.00 | 88 | 1009.3 |
| 20260510061527 | 15 | 293 | 1.6 | 6.4 | 0.00 | 0.30 | 0.00 | 87 | 1009.5 |
| 20260510060034 | 15 | 287 | 1.6 | 4.8 | 0.00 | 0.41 | 0.00 | 87 | 1009.5 |
| 20260510054525 | 15 | 300 | 0.0 | 3.2 | 0.00 | 0.41 | 0.00 | 87 | 1009.3 |
| 20260510053059 | 15 | 290 | 1.6 | 4.8 | 0.00 | 0.41 | 0.00 | 87 | 1009.3 |
| 20260510053001 | 15 | 290 | 1.6 | 4.8 | 0.00 | 0.41 | 0.00 | 87 | 1009.4 |
| 20260510051509 | 15 | 296 | 0.0 | 0.0 | 0.00 | 0.41 | 0.00 | 88 | 1009.3 |
| 20260510050009 | 15 | 296 | 0.0 | 0.0 | 0.00 | 0.53 | 0.00 | 87 | 1009.2 |
| 20260510044516 | 15 | 286 | 0.0 | 8.0 | 0.00 | 0.53 | 0.00 | 87 | 1009.1 |
| 20260510043011 | 15 | 330 | 9.7 | 17.7 | 0.00 | 0.53 | 0.00 | 85 | 1009.6 |
| 20260510041510 | 16 | 332 | 19.3 | 29.0 | 0.00 | 0.53 | 0.00 | 81 | 1009.5 |
| 20260510040012 | 16 | 326 | 3.2 | 6.4 | 0.00 | 0.69 | 0.53 | 78 | 1008.9 |
| 20260510034512 | 17 | 297 | 0.0 | 4.8 | 0.00 | 0.69 | 0.53 | 77 | 1008.6 |
| 20260510033018 | 16 | 293 | 1.6 | 4.8 | 0.00 | 0.69 | 0.53 | 77 | 1008.3 |
| 20260510031513 | 16 | 290 | 0.0 | 6.4 | 0.00 | 0.69 | 0.53 | 77 | 1008.2 |
| 20260510030056 | 16 | 287 | 3.2 | 4.8 | 0.00 | 0.84 | 0.53 | 76 | 1008.2 |
| 20260510024551 | 16 | 290 | 1.6 | 6.4 | 0.00 | 0.84 | 0.53 | 75 | 1008.2 |
| 20260510023041 | 17 | 289 | 3.2 | 6.4 | 0.00 | 0.84 | 0.53 | 75 | 1008.4 |
| 20260510021555 | 17 | 292 | 0.0 | 4.8 | 0.00 | 0.84 | 0.53 | 74 | 1008.2 |
| 20260510020009 | 17 | 290 | 1.6 | 4.8 | 0.00 | 0.89 | 0.53 | 73 | 1008.0 |
| 20260510014520 | 17 | 292 | 1.6 | 4.8 | 0.00 | 0.89 | 0.53 | 71 | 1007.6 |
| 20260510013015 | 18 | 287 | 1.6 | 4.8 | 0.00 | 0.89 | 0.53 | 69 | 1007.5 |
| 20260510011532 | 18 | 292 | 3.2 | 6.4 | 0.00 | 0.89 | 0.53 | 67 | 1007.2 |
| 20260510010035 | 18 | 288 | 3.2 | 6.4 | 0.00 | 0.91 | 0.53 | 65 | 1007.0 |
| 20260510004533 | 18 | 288 | 3.2 | 6.4 | 0.00 | 0.91 | 0.53 | 64 | 1006.7 |
| 20260510003041 | 19 | 282 | 1.6 | 4.8 | 0.00 | 0.91 | 0.53 | 64 | 1006.6 |
| 20260510001532 | 20 | 284 | 1.6 | 4.8 | 0.00 | 0.91 | 0.53 | 64 | 1006.4 |
| 20260510000042 | 20 | 291 | 3.2 | 6.4 | 0.00 | 0.97 | 0.53 | 68 | 1006.3 |
| 20260509234603 | 20 | 275 | 3.2 | 6.4 | 0.00 | 0.97 | 0.53 | 66 | 1006.1 |
| 20260509233055 | 20 | 291 | 3.2 | 11.3 | 0.00 | 0.97 | 0.53 | 65 | 1006.0 |
| 20260509231507 | 20 | 232 | 3.2 | 8.0 | 0.00 | 0.97 | 0.53 | 65 | 1005.9 |
| 20260509230011 | 21 | 257 | 1.6 | 9.7 | 0.00 | 0.97 | 0.53 | 64 | 1005.8 |
| 20260509224601 | 21 | 315 | 1.6 | 9.7 | 0.00 | 0.97 | 0.53 | 64 | 1005.8 |
| 20260509224503 | 21 | 221 | 3.2 | 9.7 | 0.00 | 0.97 | 0.53 | 63 | 1005.8 |
| 20260509223015 | 21 | 11 | 1.6 | 9.7 | 0.00 | 0.97 | 0.53 | 62 | 1005.8 |
| 20260509221531 | 22 | 299 | 4.8 | 19.3 | 0.00 | 0.97 | 0.53 | 58 | 1005.8 |
| 20260509220024 | 22 | 311 | 4.8 | 12.9 | 0.00 | 0.97 | 0.53 | 57 | 1005.7 |
| 20260509214530 | 22 | 325 | 4.8 | 11.3 | 0.00 | 0.97 | 0.53 | 55 | 1005.6 |
| 20260509213032 | 22 | 304 | 4.8 | 12.9 | 0.00 | 0.97 | 0.53 | 57 | 1005.6 |
| 20260509211536 | 22 | 308 | 1.6 | 14.5 | 0.00 | 0.97 | 0.53 | 58 | 1005.6 |
| 20260509210024 | 23 | 291 | 3.2 | 8.0 | 0.00 | 0.97 | 0.53 | 60 | 1005.7 |
| 20260509204529 | 23 | 294 | 3.2 | 8.0 | 0.00 | 0.97 | 0.53 | 61 | 1005.8 |
| 20260509203044 | 22 | 246 | 0.0 | 12.9 | 0.00 | 0.97 | 0.53 | 64 | 1006.0 |
| 20260509201543 | 22 | 235 | 4.8 | 12.9 | 0.00 | 0.97 | 0.53 | 63 | 1006.1 |
| 20260509200046 | 22 | 240 | 1.6 | 11.3 | 0.00 | 0.97 | 0.53 | 63 | 1006.3 |
| 20260509194534 | 22 | 285 | 1.6 | 6.4 | 0.00 | 0.97 | 0.53 | 66 | 1006.2 |
| 20260509193045 | 22 | 279 | 4.8 | 16.1 | 0.00 | 0.97 | 0.53 | 63 | 1006.4 |
| 20260509191608 | 22 | 256 | 3.2 | 9.7 | 0.00 | 0.97 | 0.53 | 65 | 1006.5 |
| 20260509190110 | 21 | 298 | 1.6 | 11.3 | 0.00 | 0.97 | 0.53 | 66 | 1006.7 |
| 20260509184548 | 21 | 286 | 3.2 | 11.3 | 0.00 | 0.97 | 0.53 | 69 | 1006.7 |
| 20260509183050 | 21 | 294 | 3.2 | 9.7 | 0.00 | 0.97 | 0.53 | 70 | 1006.7 |
| 20260509181554 | 21 | 305 | 1.6 | 12.9 | 0.00 | 0.97 | 0.53 | 70 | 1006.8 |
| 20260509180034 | 21 | 331 | 0.0 | 9.7 | 0.00 | 0.97 | 0.53 | 71 | 1006.8 |
| 20260509174537 | 20 | 236 | 1.6 | 11.3 | 0.00 | 0.97 | 0.53 | 73 | 1007.0 |
| 20260509173054 | 20 | 279 | 1.6 | 8.0 | 0.00 | 0.97 | 0.53 | 75 | 1007.1 |
| 20260509171556 | 20 | 260 | 0.0 | 9.7 | 0.00 | 0.97 | 0.53 | 75 | 1007.2 |
| 20260509170052 | 19 | 292 | 1.6 | 14.5 | 0.00 | 0.97 | 0.53 | 75 | 1007.4 |
| 20260509164555 | 19 | 192 | 4.8 | 8.0 | 0.00 | 0.97 | 0.53 | 74 | 1007.5 |
| 20260509163105 | 18 | 272 | 1.6 | 9.7 | 0.00 | 0.97 | 0.53 | 76 | 1007.3 |
| 20260509163001 | 18 | 196 | 1.6 | 9.7 | 0.00 | 0.97 | 0.53 | 76 | 1007.3 |
| 20260509161506 | 18 | 266 | 1.6 | 8.0 | 0.00 | 0.97 | 0.53 | 76 | 1007.3 |
| 20260509160017 | 18 | 288 | 0.0 | 8.0 | 0.00 | 0.97 | 0.53 | 79 | 1007.3 |
| 20260509154520 | 17 | 271 | 3.2 | 9.7 | 0.00 | 0.97 | 0.53 | 76 | 1007.4 |
| 20260509153006 | 17 | 84 | 1.6 | 8.0 | 0.00 | 0.97 | 0.53 | 79 | 1007.4 |
| 20260509151510 | 17 | 284 | 0.0 | 0.0 | 0.00 | 0.97 | 0.53 | 79 | 1007.3 |
| 20260509150016 | 17 | 150 | 0.0 | 0.0 | 0.00 | 0.97 | 0.53 | 81 | 1007.2 |
| 20260509144521 | 16 | 224 | 0.0 | 0.0 | 0.00 | 0.97 | 0.53 | 84 | 1007.3 |
| 20260509143022 | 16 | 265 | 0.0 | 0.0 | 0.00 | 0.97 | 0.53 | 85 | 1007.2 |
| 20260509141530 | 15 | 57 | 0.0 | 0.0 | 0.00 | 0.97 | 0.53 | 87 | 1007.1 |
| 20260509140034 | 15 | 302 | 0.0 | 1.6 | 0.00 | 0.97 | 0.53 | 87 | 1006.9 |
| 20260509134538 | 15 | 259 | 0.0 | 0.0 | 0.00 | 0.97 | 0.53 | 89 | 1007.1 |
| 20260509133033 | 14 | 300 | 0.0 | 0.0 | 0.00 | 0.97 | 0.53 | 89 | 1007.2 |
| 20260509131555 | 13 | 279 | 0.0 | 0.0 | 0.00 | 0.97 | 0.53 | 90 | 1007.2 |
| 20260509130048 | 13 | 292 | 0.0 | 3.2 | 0.00 | 0.97 | 0.53 | 91 | 1007.1 |
| 20260509124545 | 13 | 302 | 0.0 | 3.2 | 0.00 | 0.97 | 0.53 | 91 | 1007.2 |
| 20260509123048 | 12 | 298 | 0.0 | 0.0 | 0.00 | 0.97 | 0.53 | 91 | 1007.2 |
| 20260509121547 | 12 | 286 | 0.0 | 0.0 | 0.00 | 0.97 | 0.53 | 91 | 1007.2 |
| 20260509120105 | 12 | 286 | 0.0 | 0.0 | 0.00 | 0.97 | 0.53 | 91 | 1007.0 |
| 20260509114503 | 11 | 288 | 0.0 | 0.0 | 0.00 | 0.97 | 0.53 | 91 | 1007.1 |
| 20260509113013 | 11 | 286 | 0.0 | 0.0 | 0.03 | 0.97 | 0.53 | 91 | 1007.2 |
| 20260509111517 | 11 | 286 | 0.0 | 0.0 | 0.03 | 0.97 | 0.53 | 91 | 1007.1 |
| 20260509110024 | 11 | 300 | 0.0 | 3.2 | 0.03 | 0.97 | 0.53 | 91 | 1007.0 |
| 20260509104521 | 11 | 303 | 1.6 | 8.0 | 0.03 | 0.97 | 0.53 | 91 | 1006.8 |